Location: Newark
(13.8117°N, 3.6025°W)
Time: 08:56:09
(UTC+00:00)

SR - Visible Passes

Search period start: 26 August 2019 00:00
Search period end: 05 September 2019 00:00
Orbit: 578 x 878 km, 66.7° (Epoch: 25 August)

Date Brightness Start Highest point End Pass type
(mag) Time Alt. Az. Time Alt. Az. Time Alt. Az.
27 Aug ? 21:17:37 10° NNW 21:18:24 14° NNW 21:18:24 14° NNW visible
28 Aug ? 20:28:45 10° N 20:30:29 18° NNE 20:30:29 18° NNE visible
29 Aug ? 19:41:29 10° NE 19:42:41 12° NE 19:42:41 12° NE visible
29 Aug ? 21:20:24 10° NNW 21:22:07 20° NW 21:22:07 20° NW visible
30 Aug ? 20:30:47 10° NNW 20:34:25 38° N 20:34:25 38° N visible
31 Aug ? 19:42:01 10° N 19:46:50 27° ENE 19:46:50 27° ENE visible
31 Aug ? 21:23:57 10° NW 21:26:18 20° WNW 21:26:18 20° WNW visible
01 Sep ? 18:55:04 10° NE 18:57:06 12° ENE 18:59:06 10° E visible
01 Sep ? 20:33:30 10° NNW 20:38:51 61° W 20:38:51 61° W visible
02 Sep ? 19:43:57 10° N 19:49:44 58° ENE 19:51:34 41° SE visible
02 Sep ? 21:29:19 10° W 21:31:03 12° WSW 21:31:03 12° WSW visible
03 Sep ? 18:55:15 10° N 19:00:01 26° ENE 19:04:27 11° ESE visible
03 Sep ? 20:36:58 10° NW 20:41:57 29° WSW 20:43:56 24° SW visible
04 Sep ? 19:46:36 10° NNW 19:52:27 67° WSW 19:57:02 17° S visible
